Location: Kielce
(50.8833°N, 20.6167°E)
Time: 23:36:30
(UTC+02:00)

SR - Pass Details

Date: 20 April 2021
Orbit: 573 x 882 km, 66.7° (Epoch: 16 May)

Event Time Altitude Azimuth Distance (km) Brightness Sun altitude
Rises 06:54:14 0° 168° (SSE) 3,311 ? 11.8°
Reaches altitude 10° 06:57:09 10° 153° (SSE) 2,431 ? 12.2°
Maximum altitude 07:01:15 21° 106° (ESE) 1,837 ? 12.9°
Drops below altitude 10° 07:05:29 10° 60° (ENE) 2,531 ? 13.5°
Sets 07:08:35 0° 46° (NE) 3,488 ? 14.0°
